Погода в Даугавпилсе

Погода в Даугавпилсе : погода сейчас, прогноз погоды и архив. Всё, что Вы хотите узнать о погоде в Даугавпилсе!

Поиск расширенной информации на нашем сайте:

Другие новости

Новости СМИ2

Главная страница сайта

Новости сайта

03.07.2017

Напоминаем, что на нашем специализированном сайте Метеоцентр.Азия вы можете получить высокодетализированные автоматические прогнозы погоды по пунктам России, СНГ и мира в авиационном формате (включающие направление и скорость ветра, видимость, явления погоды, количество и форму облачности, нижнюю и верхнюю границу облачности).


Погода в Даугавпилсе - сегодня

Время (UTC), дата Ветер
(°,м/с) 
Видим.   Явления Облачность Т
(°С)
Тd
(°С)
f(%) Тe
(°С)
Pmin
(гПа)
dP
(гПа)
Po
(мм)
O2
(г/м3)
Тmin Tmax R s Состояние
почвы
18 14.02.18 тихо () -1  н/о    н/о 
-12.2 -13.1 93 -12  1027.9  1.5  761  322           
21 14.02.18 050 (СВ) 1-2  н/о    н/о 
-15.5 -16.9 89 -16  1028.4  0.3  761  327           
00 15.02.18 050 (СВ) 1-2  н/о    н/о 
-14 -15.6 88 -14  1029  0.7  762  325           
03 15.02.18 тихо () -1  н/о    н/о 
-12.2 -13.7 89 -12  1029  0.1  762  323           
06 15.02.18 070 (В) 1-2  н/о    н/о 
-10.4 -12 88 -10  1029.5  0.6  762  321           
09 15.02.18 080 (В) 1-2  н/о    н/о 
-7.9 -10.7 80 -8  1030.1  0.7  763  318           
12 15.02.18 100 (В) 2-3  н/о    н/о 
-5.5 -9.2 75 -7  1029.2  -0.8  762  314           
15 15.02.18 100 (В) 2-2  н/о    н/о 
-5.5 -8.6 79 -7  1028.8  -0.4  762  314           
18 15.02.18 110 (В) 2-3  н/о    н/о 
-6.4 -8.9 82 -8  1028.7  -0.2  762  315           
21 15.02.18 140 (ЮВ) 2-3  н/о    н/о 
-5.9 -8.1 84 -7  1028  -0.6  761  314           
03 16.02.18 110 (В) 3-3  н/о    н/о 
-6.3 -8.8 82 -9  1026.1  -1.3  760  314           
06 16.02.18 130 (ЮВ) 3-4  н/о    н/о 
-5.7 -7.9 84 -8  1025.1  -0.9  759  313           
09 16.02.18 110 (В) 3-4  н/о    н/о 
-4.3 -6.3 86 -7  1024.2  -0.8  759  311           
12 16.02.18 120 (ЮВ) 3-4  н/о    н/о 
-3 -5 86 -5  1022.7  -1.4  758  309           
15 16.02.18 130 (ЮВ) 3-4  н/о    н/о 
-2.7 -4.7 86 -5  1021.6  -1.1  757  309           
18 16.02.18 140 (ЮВ) 2-3  н/о    н/о 
-2.4 -4.1 88 -3  1021.2  -0.4  757  308           
21 16.02.18 140 (ЮВ) 2-3  н/о    н/о 
-2.3 -3.9 89 -3  1020.3  -0.9  756  308           
00 17.02.18 140 (ЮВ) 1-2  н/о    н/о 
-2.2 -3.5 91 -2  1019.8  -0.5  755  307           
03 17.02.18 тихо () -1  н/о    н/о 
-2.4 -3.4 93 -2  1019.2  -0.6  755  307           
06 17.02.18 тихо () -1  н/о    н/о 
-2.4 -3.4 93 -2  1018.5  -0.6  755  307           
09 17.02.18 120 (ЮВ) 1-2  н/о    н/о 
-1.3 -2.2 94 -1  1017.5  -1  754  305           
12 17.02.18 060 (СВ) 1-2  н/о    н/о 
+0.9 -1.1 86 +2  1016.7  -0.7  753  303           
15 17.02.18 020 (С) 1-2  н/о    н/о 
+0.1 -1 92 +1  1016.6  0.1  753  303           
18 17.02.18 340 (С) 3-5  н/о    н/о 
-0.8 -1.6 94 -3  1017  0.4  753  305           
21 17.02.18 320 (СЗ) 2-5  н/о    н/о 
-1.8 -2.7 94 -3  1018  0.9  754  306           
Время (UTC), дата Ветер
(°,м/с) 
Видим.   Явления Облачность Т
(°С)
Тd
(°С)
f(%) Тe
(°С)
Pmin
(гПа)
dP
(гПа)
Po
(мм)
O2
(г/м3)
Тmin Tmax R s Состояние
почвы

Для получения пояснительной информации подведите курсор к названию столбца.

ПОГОДА в Даугавпилсе - архив

Всё, что Вы хотите узнать о погоде в Даугавпилсе - удобно и подробно!

Выберите нужную дату (начиная с 1 января 2015* года) и нажмите кнопку "Найти".
Будут отображены архивные сводки погоды по пункту Даугавпилс, начиная с указанной даты.


Отображать данные в формате CSV (для использования в таблицах Excel)


Внимание! Наш архив погоды предназначен исключительно для личного некоммерческого использования в познавательных целях. Если Вам необходимы официальные справки о состоянии погоды (для производственных, юридических, коммерческих и т.п. целей), обращайтесь в органы Росгидромета.

*Примечание: данная дата относится к архиву по метеостанциям СССР (Россия, СНГ, Балтия).
Архив по метеостанциям Зарубежной Европы и Азии (кроме Китая) хранится 10 дней, по другим регионам земного шара (Китай, Африка, Америка, Австралия, Океания) - 1 день.

Даугавпилс - район местоположения метеостанции


Название, широта, долгота, высота метеостанции:
Даугавпилс 55.9°ш. 26.6°д. 122 м над ур. моря [Латвия]

Дополнительная информация

В oтличие oт бoльшинства пoгoдных сайтoв мы публикуем пoдрoбную метеoинфoрмацию в детальнoм прoфессиoнальнoм фoрмате.

Характеристики температуры и влажнoсти вoздуха измеряются на высoте 2 м в тени вдали oт зданий и деревьев.
Скoрoсть ветра измеряется на высoте 10 м (на урoвне рoста челoвека скoрoсть ветра ниже в 1.5-2 раза). Если метеoстанция нахoдится в гoрoде или в лесу, тo скoрoсть ветра занижена на 2-4 м/с пo сравнению с oткрытым местoм. Скoрoсть ветра над акватoриями крупных рек и oзёр, а также на вершинах хoлмoв на 2-5 м/с выше, чем в oбычных услoвиях.
Атмoсфернoе давление в разных тoчках местнoсти мoжет значительнo oтличаться oт давления на метеoстанции, в зависимoсти oт услoвий рельефа (при пoдъёме на 10 м давление пoнижается примернo на 1 мм рт.ст.).